Weather in Maseru

Lesotho     29°19′54″S   27°29′21″E
temp.,
°C
wind,
m/s
gust,
m/s
humid.,
%
clouds,
%
prec.,
mm/h
press.,
hPa
HPBL,
m
12 may, wed
wed1223:00+10sw11420 0.0 102411
02:00+9se11460 0.0 102410
05:00+7se11600 0.0 102310
08:00+12s11450 0.0 102511
11:00+19sw24260 0.0 1023887
14:00+21sw45190 0.0 10191625
17:00+17sw22280 0.0 101911
20:00+12sw11360 0.0 102211
13 may, thu
thu1323:00+10sw11390 0.0 102211
02:00+9ese11420 0.0 102110
05:00+8ene11560 0.0 102110
08:00+12ene11440 0.0 102310
11:00+19nnw11230 0.0 1021735
14:00+22w34180 0.0 10181855
17:00+17wnw22270 0.0 101811
20:00+13nw22300 0.0 102011
14 may, fri
fri1423:00+11ene11350 0.0 102011
02:00+9e22380 0.0 102010
05:00+8nne11400 0.0 102010
08:00+12ne11370 0.0 102111
11:00+19nne34210 0.0 1019953
14:00+22nw45160 0.0 10152178
17:00+17wnw33240 0.0 101618
20:00+13nnw33280 0.0 101812
15 may, sat
sat1523:00+11ne22300 0.0 101711
02:00+9nne22330 0.0 101710
05:00+8ne22360 0.0 101710
08:00+11ne22340 0.0 101849
11:00+19wnw46230 0.0 10161175
14:00+21wnw710200 0.0 10122434
17:00+17wnw46270 0.0 101389
20:00+12n22350 0.0 101411
16 may, sun
sun1623:00+10n11400 0.0 101510
02:00+9nne114519 0.0 101610
05:00+8ene22480 0.0 101610
08:00+11ne22420 0.0 101750
11:00+19nw411250 0.0 10151895
14:00+21wnw812220 0.0 10122663
17:00+17w58290 0.0 1013147
20:00+11sw22440 0.0 101610